Info for pilots

Image

Airfield Info:

EBUL
N51 08.7 - E003 28.6
ELEV 95' / 29m
RWY 07 / 25
799m * 45m (CIV) - 2980m (MIL)
Ursel Radio 135.130
Tel Aero Club Brugge : +32(0)9 374 25 75
Tel Vliegclub Ursel : +32(0)9 374 12 90

Operational Hours
FRI: 14h00LT - SS+30 MIN
SAT, SUN and HOL: TKOF and LDG: 10h00LT - SS+30 MIN
After 20h00LT to SS+30 MIN: only LDG allowed (PN)

Local Traffic Regulations
The use of the AD is subject to PPR from the OPR;
AD given in concession to the CIV club outside MIL ACT;
Solo training flights can only be performed after two reconnaissance flights with instructor. The solo training flight must be performed within six weeks after the first reconnaissance flight;
Jet aircraft operations not allowed.

Obstacles:
trees between 10M AGL and 22M AGL, caution when crosswind:
North of the RWY, 75M from CL, along the whole length of the RWY;
South of the RWY, 75M from CL, and at THR RWY 25 from THR RWY 07 to 140M east of THR RWY 07



Image

Image

Watch out!

Flight Procedures
RWY 07 and 25 left hand circuit, 1.200 FT QNH

Image

Taxi procedures:
RWY 07 (TKOF):
taxi on the north side of the RWY to the HLDG position of RWY 07

RWY 07 (LDG):
after landing roll out to the second intersection (THR RWY 25), turn left, turn left again, taxi via the TWY to the first intersection, turn left, cross the RWY (check for landing ACFT), taxi on the south side of the RWY to the AD reporting office

RWY 25 (TKOF):
taxi on the north side of the first intersection, turn left, next turn right, taxi via the TWY to the second intersection, turn right, taxi to the HLDG of RWY 25

RWY 25 (LDG):
after landing roll out to the end of the RWY, taxi on the south side of the RWY to the AD reporting office.





Image

Taxi & Circuit?

Image
Image
Image
Image

Current Metars - Auto refresh

EBOS - Oostende
2019/08/18 03:20 EBOS 180320Z 24006KT 210V270 CAVOK 15/14 Q1005 NOSIG


EBAW - Antwerpen
2019/08/18 03:20 EBAW 180320Z AUTO 19005KT CAVOK 16/15 Q1006


EBBR - Brussel
2019/08/18 03:20 EBBR 180320Z 18006KT CAVOK 15/14 Q1006 NOSIG

Source : NOAA.GOV

Current TAFs - Auto refresh

EBOS - Oostende
2019/08/17 18:27 TAF EBOS 171702Z 1718/1824 22010KT 9999 FEW020 BECMG 1802/1804 16005KT TEMPO 1804/1810 3500 RA SCT004 BKN006 BECMG 1811/1813 25012KT SCT020

EBAW - Antwerpen
2019/08/18 03:27 TAF TAF EBAW 180200Z 1803/1812 17005KT 9999 FEW020 SCT040 BECMG 1803/1805 SCT008 BKN012 TEMPO 1804/1812 3500 RA -RADZ SCT005 BKN007 PROB30 TEMPO 1805/1809 2000 +RA BKN004

EBBR - Brussel
2019/08/17 18:27 TAF TAF EBBR 171702Z 1718/1824 22010KT 9999 SCT008 BKN012 TEMPO 1718/1719 3000 DZRA SCT004 BKN006 TEMPO 1719/1803 SCT010 SCT040 BECMG 1804/1806 12004KT TEMPO 1804/1812 3500 RA SCT003 BKN005 PROB30 TEMPO 1804/1810 1800 +RA BKN004 BECMG 1812/1814 25010KT SCT020

Source : NOAA.GOV
Image

Webcam

Direction runway 07 :